User: anonymous   Login
Location: Unspecified
(0.0000°N, 0.0000°E)
Time: 18:55:49
(UTC+00:00)
Language:

Kosmos-2180 - Orbit

View from above orbital plane
View from above orbital plane
View from above satellite
View from above satellite

Ground track
Ground track

The orbit data is extracted from the following two-line orbital elements,

1 21875U 92008A   17084.83246678 +.00000009 +00000-0 -62533-5 0  9990
2 21875 082.9299 198.6410 0037220 352.7667 121.9752 13.73717378258068
Epoch (UTC): 25 March 2017 19:58:45
Eccentricity: 0.0037220
inclination: 82.9299°
perigee height: 959 km
apogee height: 1013 km
right ascension of ascending node: 198.6410°
argument of perigee: 352.7667°
revolutions per day: 13.73717378
mean anomaly at epoch: 121.9752°
orbit number at epoch: 25806

The dashed part of the orbit path shows where the satellite is in the earth's shadow,  

DLR